QPF
0.00 0.00 0.00 0.00 0.00 0.00 0.00 0.00 0.00 0.00 0.00 0.00 0.00 0.00 0.00 0.00 0.00 0.00 0.00 0.00 0.00 0.00 0.00 0.00 0.00 0.00 0.00 0.00 0.00 0.00 0.00 0.00 0.00 0.00 0.00 0.00 0.00 0.00 0.00 0.00 0.00 0.00 0.00 0.00
0.00 0.00 0.00 0.00 0.00 0.00 0.00 0.00 0.00 0.00 0.00 0.00 0.00 0.00 0.00 0.00 0.00 0.00 0.00 0.00 0.00 0.00 0.00 0.00 0.00 0.00 0.00 0.00 0.00 0.00 0.00 0.00 0.00 0.00 0.00 0.00 0.00 0.00 0.00 0.00 0.00 0.00 0.00 0.00
0.00 0.00 0.00 0.00 0.00 0.00 0.00 0.00 0.00 0.00 0.00 0.00 0.00 0.00 0.00 0.00 0.00 0.00 0.00 0.00 0.00 0.00 0.00 0.00 0.00 0.00 0.00 0.00 0.00 0.00 0.00 0.00 0.00 0.00 0.00 0.00 0.00 0.00 0.00 0.00 0.00 0.00 0.00 0.00
0.00 0.00 0.00 0.00 0.00 0.00 0.00 0.00 0.00 0.00 0.00 0.00 0.00 0.00 0.00 0.00 0.00 0.00 0.02 0.02 0.00 0.00 0.00 0.00 0.00 0.00 0.00 0.00 0.00 0.00 0.00 0.00 0.00 0.00 0.00 0.00 0.00 0.00 0.00 0.00 0.00 0.00 0.00 0.00
0.00 0.00 0.00 0.00 0.00 0.00 0.00 0.00 0.00 0.00 0.00 0.00 0.00 0.00 0.00 0.00 0.00 0.01 0.01 0.00 0.00 0.00 0.00 0.00 0.00 0.00 0.00 0.00 0.00 0.00 0.00 0.00 0.00 0.00 0.00 0.00 0.00 0.00 0.00 0.00 0.00 0.00 0.00 0.00
0.00 0.00 0.00 0.00 0.00 0.00 0.00 0.00 0.00 0.00 0.00 0.00 0.00 0.00 0.00 0.00 0.00 0.00 0.00 0.00 0.00 0.00 0.00 0.00 0.00 0.00 0.00 0.00 0.00 0.00 0.00 0.00 0.00 0.00 0.00 0.00 0.00 0.00 0.00 0.00 0.00 0.00 0.00 0.00
0.00 0.00 0.00 0.00 0.00 0.00 0.00 0.00 0.00 0.00 0.00 0.00 0.00 0.00 0.00 0.00 0.00 0.00 0.00 0.00 0.00 0.00 0.00 0.00 0.00 0.00 0.00 0.00 0.00 0.00 0.00 0.00 0.00 0.00 0.00 0.00 0.00 0.00 0.00 0.00 0.00 0.00 0.00 0.00
0.00 0.00 0.00 0.00 0.00 0.00 0.00 0.00 0.00 0.00 0.00 0.00 0.00 0.00 0.00 0.00 0.00 0.00 0.00 0.00 0.00 0.00 0.00 0.00 0.00 0.00 0.00 0.00 0.00 0.00 0.00 0.00 0.00 0.00 0.00 0.00 0.00 0.00 0.00 0.00 0.00 0.00 0.00 0.00
0.00 0.00 0.00 0.00 0.00 0.00 0.00 0.00 0.00 0.00 0.00 0.00 0.00 0.00 0.00 0.00 0.00 0.00 0.00 0.00 0.00 0.00 0.00 0.00 0.00 0.00 0.00 0.00 0.00 0.00 0.00 0.00 0.00 0.00 0.00 0.00 0.00 0.00 0.00 0.00 0.00 0.00 0.00 0.00
0.00 0.00 0.00 0.00 0.00 0.00 0.00 0.00 0.00 0.00 0.00 0.00 0.00 0.00 0.00 0.00 0.00 0.00 0.00 0.00 0.00 0.00 0.00 0.00 0.00 0.00 0.00 0.00 0.00 0.00 0.00 0.00 0.00 0.00 0.00 0.00 0.00 0.00 0.00 0.00 0.00 0.00 0.00 0.00
0.00 0.00 0.00 0.00 0.00 0.00 0.00 0.00 0.00 0.00 0.00 0.00 0.00 0.00 0.00 0.00 0.00 0.00 0.00 0.00 0.00 0.00 0.00 0.00 0.00 0.00 0.00 0.00 0.00 0.00 0.00 0.00 0.00 0.00 0.00 0.00 0.00 0.00 0.00 0.00 0.00 0.00 0.00 0.00
0.00 0.00 0.00 0.00 0.00 0.00 0.00 0.00 0.00 0.00 0.00 0.00 0.00 0.00 0.00 0.00 0.00 0.00 0.00 0.00 0.00 0.00 0.00 0.00 0.00 0.00 0.00 0.00 0.00 0.00 0.00 0.00 0.00 0.00 0.00 0.00 0.00 0.00 0.00 0.00 0.00 0.00 0.00 0.00
0.00 0.00 0.00 0.00 0.00 0.00 0.00 0.00 0.00 0.00 0.00 0.00 0.00 0.00 0.00 0.00 0.00 0.00 0.00 0.00 0.00 0.00 0.00 0.00 0.00 0.00 0.00 0.00 0.00 0.00 0.00 0.00 0.00 0.00 0.00 0.00 0.00 0.00 0.00 0.00 0.00 0.00 0.00 0.00
0.00 0.00 0.00 0.00 0.00 0.00 0.00 0.00 0.00 0.00 0.00 0.00 0.00 0.00 0.00 0.00 0.00 0.00 0.00 0.00 0.00 0.00 0.00 0.00 0.00 0.00 0.00 0.00 0.00 0.00 0.00 0.00 0.00 0.00 0.00 0.00 0.00 0.00 0.00 0.00 0.00 0.00 0.00 0.00
0.00 0.00 0.00 0.00 0.00 0.00 0.00 0.00 0.00 0.00 0.00 0.00 0.00 0.00 0.00 0.00 0.00 0.00 0.00 0.00 0.00 0.00 0.00 0.00 0.00 0.00 0.00 0.00 0.00 0.00 0.00 0.00 0.00 0.00 0.00 0.00 0.00 0.00 0.00 0.00 0.00 0.01 0.01 0.02
0.00 0.00 0.00 0.00 0.00 0.00 0.00 0.00 0.00 0.00 0.00 0.00 0.00 0.00 0.00 0.00 0.00 0.00 0.00 0.00 0.00 0.00 0.00 0.00 0.00 0.00 0.00 0.00 0.00 0.00 0.00 0.00 0.00 0.00 0.00 0.00 0.00 0.00 0.00 0.02 0.04 0.02 0.02 0.01
0.00 0.00 0.00 0.00 0.00 0.00 0.00 0.00 0.00 0.00 0.00 0.00 0.00 0.00 0.00 0.00 0.00 0.00 0.00 0.00 0.00 0.00 0.00 0.00 0.00 0.00 0.00 0.00 0.00 0.00 0.00 0.00 0.01 0.01 0.00 0.00 0.01 0.02 0.02 0.05 0.03 0.03 0.02 0.02
0.00 0.00 0.00 0.00 0.00 0.00 0.00 0.00 0.00 0.00 0.00 0.00 0.00 0.00 0.00 0.00 0.00 0.00 0.00 0.00 0.00 0.00 0.00 0.00 0.00 0.00 0.00 0.00 0.00 0.00 0.00 0.02 0.02 0.00 0.00 0.01 0.02 0.02 0.07 0.07 0.04 0.06 0.08 0.03
0.00 0.00 0.00 0.00 0.00 0.00 0.00 0.00 0.00 0.00 0.00 0.00 0.00 0.00 0.00 0.00 0.00 0.00 0.00 0.00 0.00 0.00 0.00 0.00 0.00 0.00 0.00 0.00 0.00 0.00 0.00 0.03 0.03 0.02 0.03 0.03 0.06 0.09 0.06 0.13 0.09 0.03 0.11 0.07
0.00 0.00 0.00 0.00 0.00 0.00 0.00 0.00 0.00 0.00 0.01 0.01 0.00 0.00 0.00 0.00 0.00 0.00 0.00 0.00 0.00 0.00 0.00 0.00 0.00 0.00 0.00 0.00 0.00 0.00 0.02 0.07 0.07 0.02 0.03 0.02 0.06 0.12 0.04 0.06 0.18 0.14 0.16 0.19
0.00 0.00 0.00 0.00 0.00 0.00 0.00 0.00 0.00 0.02 0.02 0.01 0.01 0.00 0.00 0.00 0.00 0.00 0.00 0.00 0.00 0.00 0.00 0.00 0.00 0.00 0.00 0.00 0.00 0.00 0.04 0.10 0.07 0.02 0.06 0.05 0.02 0.11 0.08 0.06 0.11 0.05 0.09 0.14
0.01 0.01 0.01 0.01 0.01 0.02 0.00 0.01 0.03 0.03 0.01 0.00 0.00 0.00 0.00 0.00 0.00 0.00 0.00 0.00 0.00 0.00 0.00 0.00 0.00 0.00 0.00 0.00 0.00 0.00 0.03 0.10 0.03 0.03 0.03 0.02 0.06 0.05 0.18 0.11 0.07 0.04 0.03 0.03
0.00 0.00 0.00 0.01 0.03 0.02 0.01 0.00 0.03 0.03 0.02 0.00 0.00 0.00 0.00 0.00 0.00 0.00 0.00 0.00 0.00 0.00 0.00 0.00 0.00 0.00 0.00 0.00 0.00 0.00 0.05 0.07 0.03 0.05 0.02 0.08 0.06 0.04 0.04 0.05 0.05 0.05 0.02 0.00
0.00 0.00 0.00 0.00 0.01 0.00 0.00 0.00 0.00 0.00 0.00 0.00 0.00 0.00 0.00 0.00 0.00 0.00 0.00 0.00 0.00 0.00 0.00 0.00 0.00 0.00 0.00 0.00 0.00 0.01 0.07 0.08 0.04 0.02 0.02 0.05 0.03 0.12 0.08 0.03 0.06 0.08 0.02 0.01
0.00 0.00 0.00 0.00 0.00 0.00 0.00 0.00 0.00 0.00 0.00 0.00 0.00 0.00 0.00 0.00 0.00 0.00 0.00 0.00 0.00 0.00 0.00 0.00 0.00 0.00 0.00 0.00 0.01 0.02 0.06 0.07 0.06 0.04 0.04 0.05 0.04 0.05 0.04 0.02 0.02 0.01 0.01 0.01
0.00 0.00 0.00 0.00 0.00 0.00 0.00 0.00 0.00 0.00 0.00 0.00 0.00 0.00 0.00 0.00 0.00 0.00 0.00 0.00 0.00 0.00 0.00 0.00 0.00 0.00 0.00 0.01 0.03 0.05 0.04 0.05 0.07 0.06 0.08 0.10 0.08 0.06 0.05 0.03 0.01 0.00 0.00 0.01
MSLP
1006.94 1007.31 1007.44 1007.25 1007.14 1007.17 1007.14 1007.02 1006.81 1006.53 1006.46 1006.92 1007.37 1007.85 1007.90 1008.04 1008.52 1009.10 1009.64 1010.04 1010.54 1011.02 1011.15 1011.22 1011.13 1011.22 1011.68 1011.98 1012.04 1012.08 1012.13 1012.24 1012.33 1012.42 1012.43 1012.32 1012.12 1011.85 1011.56 1011.14 1010.39 1009.86 1009.42 1009.13
1006.80 1006.89 1006.92 1006.81 1006.88 1007.10 1007.18 1007.23 1007.01 1006.57 1006.78 1007.13 1007.50 1008.01 1007.96 1008.01 1008.69 1009.19 1009.87 1010.45 1010.65 1010.71 1010.74 1010.84 1010.92 1011.07 1011.49 1011.58 1011.66 1011.80 1012.00 1012.06 1012.07 1012.08 1012.06 1012.09 1012.06 1011.73 1011.52 1011.16 1010.72 1010.32 1009.94 1009.64
1006.69 1006.71 1006.40 1006.55 1006.70 1007.00 1007.19 1007.44 1007.36 1007.68 1007.66 1007.74 1008.34 1008.85 1008.36 1008.08 1008.90 1009.53 1009.91 1010.06 1010.17 1010.34 1010.58 1010.80 1010.84 1011.19 1011.22 1011.35 1011.34 1011.54 1011.66 1011.70 1011.76 1011.75 1011.68 1011.73 1011.56 1011.60 1011.46 1011.07 1010.73 1010.33 1009.94 1009.54
1006.66 1006.53 1006.52 1006.56 1006.74 1007.05 1007.64 1007.77 1008.09 1008.48 1009.06 1009.57 1009.43 1009.97 1009.40 1009.58 1010.98 1010.98 1010.88 1010.78 1010.84 1010.47 1010.46 1010.56 1010.82 1011.00 1011.04 1011.18 1011.08 1011.16 1011.20 1011.46 1011.40 1011.36 1011.52 1011.63 1011.67 1011.62 1011.37 1011.02 1010.46 1010.21 1009.86 1009.58
1007.01 1006.71 1006.62 1006.74 1006.91 1007.35 1008.08 1008.35 1009.04 1009.62 1010.26 1010.76 1010.35 1010.90 1010.97 1010.48 1012.06 1012.27 1011.88 1011.74 1011.18 1010.68 1010.59 1010.77 1010.82 1010.80 1011.04 1010.85 1010.69 1010.99 1011.06 1011.13 1011.15 1011.28 1011.43 1011.49 1011.40 1011.19 1010.76 1010.52 1010.23 1009.88 1009.49 1009.20
1007.09 1006.87 1006.95 1006.99 1007.24 1007.66 1008.22 1008.96 1009.68 1010.22 1011.12 1011.93 1011.06 1011.12 1011.33 1011.20 1011.72 1012.39 1012.34 1012.00 1011.50 1010.91 1010.72 1010.81 1010.77 1010.90 1010.84 1010.58 1010.52 1010.80 1011.07 1011.20 1011.12 1011.06 1011.12 1011.20 1011.11 1010.89 1010.61 1010.27 1009.91 1009.40 1009.02 1008.75
1007.31 1006.85 1006.88 1007.16 1007.62 1007.71 1008.49 1009.84 1011.22 1012.09 1012.33 1012.37 1011.54 1011.26 1011.52 1011.15 1011.34 1011.67 1011.99 1011.96 1011.28 1010.78 1010.73 1010.88 1010.99 1010.89 1010.69 1010.64 1010.67 1010.83 1011.18 1011.28 1011.13 1011.12 1011.14 1011.20 1011.39 1011.23 1010.84 1010.48 1009.93 1009.34 1008.82 1008.44
1007.78 1007.18 1006.86 1007.20 1007.59 1008.02 1008.77 1009.88 1011.98 1013.49 1013.96 1013.64 1012.10 1012.34 1012.43 1011.57 1011.26 1011.39 1011.48 1011.48 1011.34 1011.16 1010.87 1010.86 1010.92 1010.74 1010.68 1010.80 1010.73 1011.10 1011.29 1011.33 1011.32 1011.36 1011.39 1011.25 1011.17 1011.16 1010.82 1010.27 1009.78 1009.26 1008.66 1008.04
1008.14 1007.70 1007.30 1007.23 1007.57 1008.10 1008.78 1009.92 1011.50 1013.37 1014.30 1014.68 1013.54 1012.96 1012.37 1011.87 1011.90 1011.74 1011.73 1011.52 1011.49 1011.26 1010.99 1010.87 1010.62 1010.60 1011.04 1011.17 1011.42 1011.46 1011.51 1011.59 1011.56 1011.54 1011.41 1011.35 1010.92 1010.79 1010.38 1009.89 1009.38 1008.82 1008.33 1007.83
1008.56 1008.71 1007.90 1007.96 1008.14 1008.28 1008.69 1009.80 1011.36 1013.52 1015.30 1015.57 1014.18 1013.52 1012.76 1012.32 1012.10 1012.01 1011.96 1011.83 1011.54 1011.29 1011.14 1010.87 1010.98 1011.16 1011.20 1011.22 1011.51 1011.60 1011.69 1011.77 1011.78 1011.66 1011.58 1011.14 1010.74 1010.40 1009.96 1009.30 1008.71 1008.23 1007.78 1007.47
1008.56 1009.24 1008.97 1008.50 1008.40 1008.38 1008.94 1009.68 1011.01 1012.85 1014.51 1015.54 1015.08 1014.04 1012.04 1011.92 1011.88 1011.84 1011.77 1011.93 1011.58 1011.50 1011.22 1011.23 1011.33 1011.25 1011.28 1011.31 1011.44 1011.87 1012.06 1012.07 1011.90 1011.78 1011.38 1010.86 1010.36 1009.90 1009.44 1008.87 1008.15 1007.49 1006.93 1006.46
1008.89 1009.70 1010.13 1009.39 1008.29 1007.82 1008.44 1009.26 1010.60 1012.79 1014.08 1014.68 1014.53 1013.52 1011.72 1011.57 1011.54 1011.50 1011.76 1011.49 1011.70 1011.30 1011.30 1011.34 1011.24 1011.35 1011.55 1012.05 1012.14 1012.34 1012.26 1012.16 1012.09 1011.78 1011.20 1010.65 1010.02 1009.50 1008.94 1008.42 1007.77 1006.96 1006.18 1005.51
1009.35 1010.42 1010.95 1010.09 1009.30 1008.57 1008.68 1009.05 1009.88 1011.10 1012.35 1013.65 1014.34 1012.84 1011.16 1011.37 1011.44 1011.28 1011.58 1011.52 1011.22 1011.30 1011.59 1011.68 1011.68 1011.96 1012.41 1012.54 1012.59 1012.60 1012.68 1012.66 1012.36 1011.74 1011.17 1010.62 1009.91 1009.26 1008.48 1007.75 1006.98 1006.26 1005.45 1004.61
1009.76 1011.07 1011.80 1011.66 1010.89 1010.06 1009.67 1009.32 1009.58 1010.36 1011.73 1012.42 1012.60 1012.01 1011.72 1011.41 1011.04 1011.18 1011.37 1011.48 1011.61 1011.71 1011.82 1012.03 1012.29 1012.68 1012.89 1012.97 1013.05 1013.16 1013.24 1013.02 1012.48 1011.95 1011.28 1010.44 1009.77 1008.94 1008.06 1007.16 1006.24 1005.34 1004.56 1003.71
1010.58 1011.70 1011.88 1011.78 1011.10 1010.37 1009.70 1009.32 1009.19 1009.63 1010.33 1011.20 1011.33 1011.38 1011.60 1011.32 1011.26 1011.37 1011.55 1011.74 1011.77 1011.94 1012.26 1012.52 1012.81 1013.17 1013.27 1013.48 1013.81 1013.89 1013.68 1013.25 1012.76 1012.09 1011.29 1010.54 1009.64 1008.69 1007.68 1006.78 1005.78 1004.73 1003.84 1003.03
1010.82 1011.98 1012.18 1012.26 1011.57 1010.75 1009.88 1009.22 1008.88 1009.01 1009.38 1009.66 1010.01 1010.73 1011.14 1011.13 1011.13 1011.54 1011.98 1012.07 1012.04 1012.39 1012.57 1012.80 1013.30 1013.53 1014.02 1014.44 1014.59 1014.34 1014.06 1013.65 1013.08 1012.32 1011.46 1010.65 1009.67 1008.55 1007.47 1006.44 1005.42 1004.59 1003.69 1002.79
1011.12 1011.94 1012.64 1012.57 1012.05 1011.23 1010.00 1008.90 1008.64 1008.45 1008.48 1009.07 1009.96 1010.36 1010.71 1011.46 1011.66 1012.17 1012.29 1012.18 1012.34 1012.53 1012.87 1013.44 1013.92 1014.40 1015.08 1015.32 1015.14 1014.86 1014.48 1014.00 1013.35 1012.48 1011.86 1010.81 1009.69 1008.48 1007.52 1006.64 1005.78 1004.93 1004.04 1003.09
1011.10 1012.04 1012.60 1012.89 1012.70 1011.73 1009.88 1008.89 1008.51 1008.67 1009.34 1009.72 1010.52 1010.89 1011.57 1011.73 1012.10 1012.22 1012.22 1012.16 1012.46 1012.92 1013.66 1014.21 1014.68 1015.36 1015.90 1015.78 1015.51 1015.29 1014.82 1014.30 1013.52 1012.84 1012.03 1011.01 1009.85 1008.82 1008.00 1007.17 1006.37 1005.46 1004.71 1003.92
1011.02 1011.83 1012.90 1013.21 1012.93 1011.78 1010.46 1009.30 1008.90 1008.84 1010.80 1010.96 1011.16 1011.28 1011.68 1011.96 1012.00 1012.32 1012.13 1012.38 1012.97 1013.84 1014.22 1014.68 1015.27 1015.98 1016.24 1016.12 1016.00 1015.62 1015.13 1014.56 1013.90 1013.15 1012.19 1011.18 1010.20 1009.39 1008.72 1007.94 1007.18 1006.53 1005.83 1005.16
1010.64 1011.37 1012.82 1013.32 1013.26 1012.53 1010.78 1009.69 1009.40 1009.36 1011.64 1011.99 1011.93 1012.25 1012.31 1012.53 1013.22 1013.17 1012.62 1012.68 1013.64 1014.08 1014.49 1015.11 1015.75 1016.48 1016.46 1016.60 1016.44 1015.99 1015.38 1014.84 1014.20 1013.42 1012.56 1011.68 1010.78 1010.20 1009.52 1008.88 1008.24 1007.60 1006.98 1006.54
1010.89 1011.56 1012.43 1013.01 1013.22 1012.50 1011.93 1011.12 1010.18 1011.53 1013.66 1012.83 1012.74 1013.03 1013.05 1013.18 1013.09 1012.75 1012.92 1013.48 1014.11 1014.75 1015.24 1015.67 1016.19 1016.88 1017.28 1017.10 1016.76 1016.24 1015.63 1015.16 1014.52 1013.76 1013.02 1012.34 1011.61 1010.97 1010.43 1009.82 1009.13 1008.72 1008.24 1007.76
1010.68 1011.50 1012.26 1012.79 1012.94 1012.82 1012.16 1011.79 1012.56 1014.05 1013.61 1013.28 1013.18 1013.07 1013.14 1013.09 1012.86 1012.99 1013.20 1014.12 1014.72 1015.40 1015.86 1016.28 1016.87 1017.54 1017.74 1017.55 1017.17 1016.57 1016.14 1015.57 1014.91 1014.34 1013.80 1013.28 1012.64 1012.12 1011.29 1010.92 1010.40 1009.97 1009.55 1009.12
1010.15 1010.53 1010.97 1011.80 1011.84 1011.72 1011.93 1011.96 1012.26 1013.10 1013.13 1013.09 1013.11 1012.98 1013.10 1013.07 1013.06 1013.23 1013.63 1014.78 1015.44 1016.00 1016.62 1017.14 1017.74 1018.26 1018.30 1018.07 1017.61 1017.02 1016.71 1015.96 1015.45 1014.98 1014.70 1014.22 1013.67 1013.02 1012.54 1012.11 1011.77 1011.36 1010.95 1010.63
1008.95 1009.07 1009.87 1010.70 1011.49 1011.59 1011.74 1012.20 1012.46 1012.98 1012.88 1012.56 1012.78 1012.91 1012.75 1013.10 1013.25 1013.54 1014.48 1015.26 1015.84 1016.60 1017.23 1017.92 1018.43 1018.76 1018.81 1018.57 1018.07 1017.76 1017.15 1016.58 1016.10 1015.84 1015.54 1015.06 1014.63 1014.04 1013.68 1013.38 1013.12 1012.84 1012.51 1012.24
1009.38 1009.20 1009.75 1010.29 1010.52 1011.24 1011.56 1011.65 1011.95 1012.17 1012.36 1012.48 1012.54 1012.72 1012.89 1013.28 1013.62 1014.09 1015.08 1015.78 1016.48 1017.21 1018.01 1018.58 1019.08 1019.44 1019.44 1019.13 1018.56 1018.05 1017.71 1017.16 1016.78 1016.55 1016.27 1015.96 1015.59 1015.24 1014.87 1014.72 1014.63 1014.29 1014.11 1013.68
1008.85 1009.49 1009.62 1010.27 1010.60 1011.01 1011.57 1011.48 1011.61 1012.00 1012.22 1012.41 1012.65 1012.84 1013.28 1013.52 1014.06 1014.65 1015.63 1016.22 1016.85 1017.62 1018.68 1019.07 1019.58 1019.97 1019.95 1019.48 1018.91 1018.56 1018.17 1017.76 1017.54 1017.38 1017.19 1016.97 1016.70 1016.44 1016.17 1015.81 1015.51 1015.00 1014.72 1014.32
Thickness
5759 5740 5726 5743 5749 5749 5744 5740 5736 5748 5756 5744 5737 5735 5736 5736 5733 5725 5721 5716 5710 5706 5706 5708 5707 5706 5701 5698 5695 5692 5690 5686 5684 5680 5679 5678 5677 5678 5678 5680 5683 5687 5691 5694
5747 5726 5750 5757 5755 5746 5741 5734 5733 5753 5755 5744 5739 5729 5738 5740 5727 5722 5713 5707 5702 5704 5703 5705 5702 5699 5693 5690 5689 5687 5683 5680 5677 5674 5672 5670 5668 5669 5668 5669 5670 5670 5674 5676
5736 5744 5760 5752 5746 5738 5736 5730 5733 5729 5737 5738 5726 5708 5721 5738 5731 5722 5716 5714 5712 5705 5700 5698 5695 5689 5687 5683 5683 5681 5679 5675 5672 5670 5667 5663 5661 5658 5656 5658 5659 5660 5661 5663
5742 5755 5747 5744 5738 5740 5713 5738 5733 5727 5709 5682 5717 5664 5707 5709 5687 5699 5702 5705 5700 5701 5699 5693 5686 5685 5682 5679 5680 5677 5676 5670 5668 5665 5660 5655 5650 5649 5647 5645 5648 5649 5649 5652
5726 5738 5736 5730 5734 5737 5717 5733 5722 5718 5701 5696 5694 5674 5695 5700 5678 5680 5687 5690 5689 5694 5693 5683 5680 5679 5675 5676 5674 5670 5667 5664 5661 5655 5650 5646 5643 5642 5643 5641 5639 5639 5641 5642
5732 5751 5742 5735 5738 5736 5735 5720 5713 5710 5693 5656 5685 5682 5672 5684 5682 5677 5681 5682 5685 5690 5682 5680 5677 5676 5672 5671 5668 5663 5658 5655 5651 5646 5640 5636 5633 5632 5631 5631 5631 5632 5632 5633
5722 5727 5739 5738 5718 5727 5721 5696 5653 5652 5650 5648 5695 5686 5675 5689 5688 5686 5681 5680 5683 5684 5676 5671 5668 5668 5666 5663 5658 5654 5647 5643 5640 5634 5629 5624 5618 5616 5615 5615 5618 5619 5620 5622
5689 5686 5722 5732 5718 5707 5705 5693 5638 5624 5617 5646 5690 5659 5661 5685 5691 5688 5681 5678 5678 5675 5673 5669 5667 5661 5657 5654 5651 5643 5638 5633 5627 5622 5616 5611 5606 5602 5601 5603 5604 5607 5610 5612
5686 5691 5724 5728 5727 5717 5703 5675 5688 5658 5664 5642 5662 5671 5677 5680 5676 5676 5676 5676 5668 5667 5664 5664 5662 5656 5649 5644 5638 5633 5627 5621 5615 5610 5605 5599 5596 5592 5591 5591 5592 5595 5598 5601
5700 5670 5713 5712 5718 5714 5704 5705 5660 5641 5616 5628 5651 5654 5648 5659 5663 5667 5663 5659 5660 5660 5658 5656 5651 5646 5642 5638 5632 5626 5618 5611 5604 5598 5591 5588 5585 5581 5579 5581 5583 5584 5587 5590
5703 5682 5685 5698 5695 5683 5684 5674 5678 5657 5637 5603 5595 5631 5672 5660 5661 5661 5661 5654 5653 5652 5652 5648 5644 5641 5637 5632 5625 5615 5608 5601 5593 5585 5581 5577 5574 5571 5569 5568 5571 5574 5579 5583
5698 5677 5660 5674 5705 5711 5700 5687 5672 5624 5640 5626 5615 5620 5681 5666 5660 5662 5653 5655 5654 5654 5647 5643 5640 5636 5631 5620 5613 5605 5599 5590 5580 5573 5568 5564 5562 5559 5557 5556 5556 5562 5569 5575
5690 5661 5640 5660 5679 5691 5685 5691 5683 5670 5653 5635 5602 5621 5679 5661 5657 5658 5650 5649 5651 5647 5639 5633 5631 5626 5616 5610 5603 5596 5585 5575 5567 5561 5555 5550 5546 5543 5546 5548 5551 5554 5560 5568
5680 5659 5645 5617 5650 5663 5658 5673 5678 5667 5634 5637 5629 5641 5646 5651 5652 5650 5646 5642 5640 5637 5630 5625 5621 5612 5604 5600 5591 5581 5570 5562 5554 5547 5540 5534 5527 5528 5533 5539 5546 5551 5556 5564
5661 5640 5650 5650 5662 5664 5663 5666 5671 5662 5656 5631 5641 5646 5639 5645 5646 5645 5639 5638 5636 5630 5624 5618 5611 5600 5595 5587 5576 5566 5558 5551 5541 5533 5525 5515 5513 5518 5526 5532 5539 5545 5553 5560
5658 5632 5644 5635 5653 5658 5654 5665 5669 5668 5666 5662 5659 5645 5640 5649 5648 5635 5632 5628 5626 5619 5617 5612 5601 5591 5583 5570 5560 5552 5545 5536 5527 5520 5512 5509 5509 5514 5520 5528 5535 5540 5547 5554
5642 5632 5624 5617 5640 5640 5633 5660 5662 5667 5671 5660 5639 5643 5642 5633 5634 5627 5624 5621 5616 5614 5611 5599 5586 5577 5563 5552 5546 5538 5530 5522 5514 5510 5503 5504 5508 5513 5517 5522 5527 5532 5538 5547
5633 5628 5624 5611 5619 5601 5646 5667 5667 5660 5650 5649 5644 5638 5628 5627 5627 5624 5623 5615 5611 5606 5596 5584 5572 5559 5547 5540 5535 5527 5520 5512 5506 5497 5496 5499 5505 5510 5514 5518 5522 5529 5533 5539
5635 5622 5605 5597 5600 5623 5641 5652 5648 5647 5626 5638 5633 5634 5628 5628 5625 5619 5618 5610 5603 5593 5586 5573 5561 5546 5537 5531 5523 5518 5511 5503 5495 5492 5494 5499 5503 5507 5510 5514 5517 5522 5527 5531
5632 5625 5605 5601 5591 5578 5631 5648 5654 5651 5600 5621 5624 5617 5617 5617 5593 5596 5608 5610 5596 5589 5578 5564 5553 5537 5530 5521 5514 5508 5502 5494 5488 5489 5492 5495 5500 5503 5506 5510 5513 5516 5521 5524
5609 5610 5597 5593 5588 5604 5618 5625 5644 5603 5589 5610 5612 5609 5608 5602 5600 5604 5602 5593 5587 5578 5566 5556 5544 5530 5519 5513 5507 5500 5494 5486 5484 5487 5489 5492 5495 5499 5502 5506 5509 5512 5516 5519
5605 5592 5589 5596 5588 5584 5615 5616 5600 5592 5597 5603 5602 5605 5601 5601 5603 5597 5595 5584 5579 5567 5557 5548 5535 5522 5511 5505 5499 5492 5485 5479 5481 5483 5482 5486 5489 5493 5498 5500 5503 5506 5509 5511
5599 5602 5593 5592 5591 5609 5611 5609 5607 5597 5597 5601 5601 5601 5596 5594 5594 5591 5586 5575 5568 5558 5547 5536 5524 5512 5504 5498 5492 5486 5478 5478 5479 5480 5479 5481 5484 5489 5492 5493 5495 5498 5500 5502
5623 5621 5603 5605 5603 5603 5604 5604 5601 5598 5601 5604 5603 5594 5595 5587 5586 5584 5575 5568 5560 5549 5539 5526 5515 5505 5498 5493 5488 5481 5476 5477 5476 5477 5476 5478 5479 5483 5484 5485 5486 5488 5491 5493
5604 5613 5606 5603 5608 5601 5600 5603 5599 5599 5598 5595 5594 5592 5587 5582 5579 5576 5567 5560 5550 5540 5528 5517 5507 5499 5491 5486 5483 5480 5476 5474 5475 5473 5473 5473 5474 5475 5478 5478 5478 5481 5482 5486
5607 5597 5590 5582 5595 5593 5591 5593 5596 5591 5589 5588 5584 5581 5578 5576 5571 5564 5557 5550 5542 5534 5519 5510 5502 5492 5486 5483 5480 5476 5472 5471 5468 5467 5467 5468 5468 5469 5471 5473 5475 5479 5482 5485